User: anonymous   Login
Location: Unspecified
(0.0000°N, 0.0000°E)
Time: 03:20:16
(UTC+00:00)
Language:

Picosat 9 - Orbit

View from above orbital plane
View from above orbital plane
View from above satellite
View from above satellite

Ground track
Ground track

The orbit data is extracted from the following two-line orbital elements,

1 26930U 01043B   18172.48889207 -.00000032 +00000-0 +19511-4 0  9990
2 26930 066.9993 174.5029 0006087 310.5075 049.5495 14.30673619873312
Epoch (UTC): 21 June 2018 11:44:00
Eccentricity: 0.0006087
inclination: 66.9993°
perigee height: 785 km
apogee height: 794 km
right ascension of ascending node: 174.5029°
argument of perigee: 310.5075°
revolutions per day: 14.30673619
mean anomaly at epoch: 49.5495°
orbit number at epoch: 87331

The dashed part of the orbit path shows where the satellite is in the earth's shadow,  

DLR